Lid_Strength_Index
2 2 2 1 1 1 1 1 1 1 1 0 1 1 1 1 1 2 3 2 5 8 7 8 8 9 9 9 11 13 12 12 12 14 15 15 16 15 16 14 15 15 16 16 15 17 19 9 10 12 9 7 7 8
2 2 1 1 1 1 1 1 1 0 0 1 1 1 0 0 0 1 5 3 2 6 7 5 5 5 6 7 8 11 10 12 11 13 12 12 15 14 15 18 12 16 13 13 13 13 9 8 8 7 6 7 7 7
1 1 1 1 2 2 1 1 1 1 1 1 1 0 0 0 0 1 3 4 5 8 8 8 8 6 5 5 5 10 9 8 9 8 9 11 14 12 15 15 12 10 9 12 11 10 9 8 6 6 6 7 6 6
1 1 1 1 1 1 1 1 1 1 1 1 1 1 0 -0 0 0 3 3 4 6 10 9 7 6 4 5 5 5 6 7 7 8 9 11 13 10 11 10 10 10 9 11 11 9 9 8 7 7 6 6 7 6
1 1 1 1 1 1 1 1 1 1 1 1 1 1 1 1 1 1 2 3 2 7 10 9 8 6 5 5 5 5 6 6 7 9 9 11 8 9 9 9 11 9 10 11 12 8 9 9 7 6 7 7 7 8
1 1 1 1 1 1 1 1 1 0 1 0 0 0 1 0 -0 2 6 2 3 3 7 10 5 8 7 5 5 6 5 5 6 7 8 7 6 8 11 12 9 8 7 6 8 7 7 7 6 6 7 8 9 10
2 2 2 1 1 1 1 1 1 1 0 0 -0 -1 -1 -1 0 4 6 3 1 1 6 9 8 8 7 6 6 5 4 5 6 7 8 7 8 7 10 13 9 7 7 6 6 7 8 7 8 8 10 11 13 14
2 2 2 2 1 1 1 1 1 1 1 0 0 -0 -1 -1 -0 3 1 0 -0 4 5 9 9 9 7 10 9 6 7 7 6 7 7 8 7 8 12 9 8 7 6 6 6 6 7 9 10 12 13 14 15 14
3 3 2 2 2 2 2 1 1 1 1 1 0 0 0 2 5 4 -1 -1 -0 4 8 8 10 12 8 8 7 9 7 10 6 9 9 8 10 12 10 9 8 7 7 7 7 13 13 13 12 13 14 15 16 15
2 3 3 2 2 2 2 2 1 1 1 1 2 5 6 5 -0 -0 3 5 5 5 6 9 6 10 8 9 10 9 9 10 12 10 8 10 11 8 7 7 7 7 10 11 13 14 16 16 15 14 16 16 17 17
3 3 3 2 3 2 2 2 2 2 1 3 6 6 3 1 3 5 8 9 8 9 7 7 7 11 8 10 10 8 10 10 14 11 11 12 13 9 7 7 8 12 13 15 15 16 17 17 15 16 17 18 18 18
3 3 3 3 3 3 2 2 2 3 3 3 3 3 4 5 7 9 10 9 9 11 9 10 9 7 9 7 10 10 11 11 14 10 12 14 10 9 10 14 16 16 17 19 19 19 19 19 19 19 20 20 20 20
3 3 3 3 3 2 2 2 2 2 2 3 5 6 7 7 11 12 13 12 12 12 11 10 11 8 9 8 9 10 13 14 12 13 14 11 10 14 17 19 22 21 21 21 22 21 21 22 22 22 22 21 21 22
3 3 3 2 2 2 2 2 2 2 4 7 8 11 10 11 11 11 10 9 8 8 10 8 10 10 9 11 10 13 12 14 15 16 15 10 10 17 20 20 23 23 23 22 23 23 23 23 23 22 23 23 24 24
3 3 2 2 2 2 2 2 1 2 5 8 8 12 11 11 14 15 16 12 11 8 10 11 10 9 10 11 10 13 16 16 15 14 10 9 18 22 23 23 23 24 24 24 24 25 24 24 24 24 23 25 24 25
3 3 3 2 2 1 1 2 2 3 4 7 9 13 15 11 13 16 15 13 14 9 9 8 11 12 13 11 13 14 16 17 12 11 15 20 23 23 24 24 24 25 25 25 25 25 24 25 25 24 26 26 25 25
4 5 3 3 2 3 2 3 4 8 10 11 14 15 16 11 9 11 12 12 11 9 11 11 13 14 11 13 14 12 13 10 13 18 20 21 22 24 26 26 27 27 26 26 26 26 26 26 29 28 26 22 24 22
7 5 3 2 4 6 10 10 10 11 16 17 15 18 18 19 17 16 16 13 11 10 10 11 11 14 14 15 14 11 15 23 22 21 22 24 25 25 25 24 27 27 26 28 28 28 28 29 25 22 24 22 23 22
6 4 3 2 4 8 10 13 12 14 19 19 19 19 19 20 19 19 17 14 14 14 11 11 12 13 12 11 13 18 20 20 22 23 24 25 25 27 27 27 27 27 27 26 25 23 23 25 24 23 22 21 21 20
5 4 4 5 5 10 13 15 13 14 17 18 18 19 20 20 20 19 18 16 14 12 12 13 12 15 16 21 23 22 21 22 23 24 24 24 24 26 25 25 23 24 25 26 25 25 23 22 22 22 22 22 22 21
8 7 6 8 11 13 15 16 18 18 18 19 19 19 20 20 21 19 18 18 15 14 14 21 23 26 28 28 27 24 24 21 22 20 21 23 24 23 25 25 25 24 23 23 23 23 24 23 23 22 22 22 22 22
10 7 9 9 13 15 16 16 17 18 19 21 19 20 20 20 21 22 22 18 17 24 26 25 25 26 26 26 28 29 28 26 25 24 24 23 25 25 25 24 24 24 24 23 24 24 24 23 22 22 23 23 23 23
11 10 13 14 16 16 20 16 19 20 19 21 20 20 22 22 23 21 20 21 24 29 30 29 30 31 28 30 30 30 30 25 25 25 25 24 23 23 23 24 23 24 24 24 24 24 24 23 23 23 23 23 23 24
15 20 21 21 19 22 19 20 19 20 20 21 20 21 23 24 24 21 19 22 27 28 28 29 28 26 27 27 26 26 28 28 27 27 26 24 24 24 23 23 24 24 24 24 24 23 23 23 24 24 24 24 24 25
18 28 25 25 23 21 21 21 21 20 23 25 23 24 26 29 22 21 22 23 25 27 28 31 29 27 26 27 27 28 35 27 25 25 26 25 24 24 25 24 24 24 23 24 24 24 23 24 24 24 25 25 26 26
29 32 29 30 26 25 25 22 24 24 23 23 26 29 29 25 22 25 25 25 26 27 28 28 27 27 26 27 26 26 26 29 26 24 24 26 25 23 24 25 25 23 22 22 23 24 24 24 25 25 25 25 25 26
29 31 31 31 30 28 27 27 27 25 26 26 28 27 26 25 27 25 25 26 26 26 28 27 26 25 24 25 25 25 26 26 25 23 22 22 22 22 22 23 23 22 22 22 23 23 24 24 25 25 25 25 25 26
33 34 34 32 32 33 30 28 27 28 28 31 31 27 27 28 28 26 25 25 28 29 29 28 27 25 24 23 23 23 24 23 23 22 22 22 22 22 22 22 22 19 22 22 23 23 24 25 25 25 25 26 25 24
31 33 34 31 33 31 34 32 31 33 34 33 29 27 28 27 28 28 26 27 27 26 26 26 26 25 23 22 22 21 21 22 22 23 23 22 22 22 24 24 24 23 23 23 21 21 23 25 25 25 25 25 24 25
33 37 31 28 28 30 34 36 35 38 39 38 38 33 29 27 27 28 29 28 26 26 26 25 24 24 22 22 22 22 21 21 22 22 24 25 24 25 26 26 25 25 25 25 25 24 22 22 24 27 26 27 27 27
39 37 33 32 31 34 37 41 41 40 39 38 41 36 31 33 30 28 28 28 29 28 26 24 24 23 23 22 22 22 22 24 27 29 28 28 27 27 26 25 24 24 25 26 26 27 27 28 28 29 29 29 29 29
35 36 35 31 32 38 41 40 39 37 38 35 34 37 32 30 25 24 26 26 25 25 25 25 24 23 24 24 24 25 26 26 27 27 29 27 25 24 23 23 24 26 27 27 28 28 29 30 29 29 28 29 29 29
33 34 33 32 30 30 33 34 32 32 33 33 34 39 38 34 27 25 25 28 28 28 27 27 27 27 27 28 27 27 27 27 25 21 19 19 19 19 19 21 23 25 26 27 26 27 28 29 29 29 29 29 29 29